Погода в Финееве

Россия / Владимирская область     56°02′27″N   38°53′09″E
темп.,
°C
ветер,
м/с
пор.,
м/с
влажн.,
%
обл.,
%
осадки,
мм/ч
давл.,
гПа
погр.,
м
5 августа, чт
чт500:00+14ю0071100 0.0 101710
03:00+13юв017453 0.0 101711
06:00+14ююв117538 0.0 101833
09:00+19ю1254100 0.0 1017423
12:00+23ююз2344100 0.0 10171066
15:00+25ю1437100 0.0 10152125
18:00+19зюз3669100 0.4 1015257
21:00+14всв2597100 4.3 1015142
6 августа, пт
пт600:00+14вюв2797100 0.1 1014159
03:00+14юв2596100 0.2 1013131
06:00+15ю2695100 0.4 1013223
09:00+15ююв3898100 1.1 1013312
12:00+16ююв3898100 1.5 1013336
15:00+16ююв2698100 6.9 1013290
18:00+16всв2596100 0.6 1012133
21:00+16всв3109493 0.6 1012322
7 августа, сб
сб700:00+16в41294100 0.2 1011393
03:00+16в3897100 1.0 1010265
06:00+16в2798100 0.8 1010269
09:00+20юв3587100 2.3 1011341
12:00+26ююв465987 0.0 1011863
15:00+20юв269092 0.1 1012152
18:00+24в2474100 0.0 1011199
21:00+22вюв3107398 0.0 1010225
8 августа, вс
вс800:00+19ююв2571100 0.0 101096
03:00+18юз257399 0.0 1011110
06:00+17ю2396100 1.2 101195
09:00+21з2388100 1.8 1012452
12:00+19зсз3485100 0.4 1013453
15:00+25зюз24480 0.6 10131429
18:00+24з36526 0.0 1013553
21:00+17сз26790 0.0 1015101
9 августа, пн
пн900:00+15з24845 0.0 101579
03:00+14з238952 0.0 101654
06:00+15з1388100 0.0 101679
09:00+20з236385 0.0 1016535
12:00+25з35482 0.0 10151646
15:00+26зсз34417 0.0 10151972
18:00+25сз24535 0.0 1014276
21:00+18с11745 0.0 101511